Location: Cz?stochówka
(50.8142°N, 19.0915°E)
Time: 20:14:00
(UTC+00:00)

Cosmos 2263 Rocket - Pass Details

Date: 13 January 2026
Orbit: 821 x 849 km, 71.0° (Epoch: 13 February)

Event Time Altitude Azimuth Distance (km) Brightness Sun altitude
Exits shadow 03:45:07 15° 354° (N) 2,154 4.2 -27.0°
Drops below altitude 10° 03:46:48 10° 10° (N) 2,481 4.7 -26.7°
Sets 03:50:10 0° 30° (NNE) 3,422 5.7 -26.2°
